Location: Lane
(33.5226°N, 79.8788°W)
Time: 09:42:27
(UTC+00:00)

Altair - Pass Details

Date: 11 October 2022
Orbit: 1501 x 1682 km, 47.2° (Epoch: 30 November)

Event Time Altitude Azimuth Distance (km) Brightness Sun altitude
Rises 09:06:31 0° 262° (W) 4,712 - -28.8°
Reaches altitude 10° 09:09:44 10° 268° (W) 3,753 - -28.1°
Exits shadow 09:15:50 37° 299° (WNW) 2,290 8.0 -26.8°
Maximum altitude 09:18:50 46° 340° (NNW) 2,051 8.0 -26.2°
Drops below altitude 10° 09:28:19 10° 52° (NE) 3,895 10.4 -24.3°
Sets 09:31:44 0° 58° (ENE) 4,902 11.2 -23.6°
